Peru, IN

11:25 AM EST on January 22, 2018 (GMT -0500)
Grissom Air Reserve Base

Weather History for KGUS - October, 2012

Change the Weather History Date:

Friday, October 19, 2012

  Actual Average Record
Temperature  
Mean Temperature 46 °F -  
Max Temperature 48 °F 59 °F 71 °F (2000)
Min Temperature 44 °F 41 °F 30 °F (1996)
Degree Days  
Heating Degree Days 19    
Moisture  
Dew Point 45 °F    
Average Humidity 91    
Maximum Humidity 94    
Minimum Humidity 87    
Precipitation  
Precipitation 0.20 in - - ()
Sea Level Pressure  
Sea Level Pressure 29.57 in    
Wind  
Wind Speed 11 mph (SW)    
Max Wind Speed 18 mph    
Max Gust Speed -    
Visibility 10 miles    
Events Rain    
Averages and records for this station are not official NWS values.
T = Trace of Precipitation, MM = Missing Value Source: NWS Daily Summary

Daily Weather History Graph

Daily Weather History Graph

Search for Another Location

Airport or City:

Trip Planner

Search our weather history database for the weather conditions in past years. The results will help you decide how hot, cold, wet, or windy it might be!

Date:

Astronomy

Oct. 19, 2012 Rise Set
Actual Time 8:00 AM EDT 6:57 PM EDT
Civil Twilight 7:32 AM EDT 7:25 PM EDT
Nautical Twilight 7:01 AM EDT 7:57 PM EDT
Astronomical Twilight 6:29 AM EDT 8:28 PM EDT
Moon 12:44 PM EDT (10/19) 10:34 PM EDT (10/19)
Length of Visible Light 11h 52m
Length of Day
10h 57m
Waxing Crescent, 23% of the Moon is Illuminated
Oct 19
Waxing Crescent
Oct 21
First Quarter
Oct 29
Full
Nov 6
Last Quarter
Nov 13
New

Hourly Weather History & Observations

Time (EDT) Temp. Windchill Dew Point Humidity Pressure Visibility Wind Dir Wind Speed Gust Speed Precip Events Conditions
12:50 AM 46.4 °F 43.5 °F 42.8 °F 87% 29.59 in 10.0 mi SE 5.8 mph - N/A   Light Drizzle
12:55 AM 45.9 °F 42.3 °F 42.8 °F 89% 29.59 in 10.0 mi SE 6.9 mph - 0.00 in   Light Drizzle
1:00 AM 46.4 °F 42.9 °F 42.8 °F 87% 29.59 in 10.0 mi ESE 6.9 mph - N/A   Mostly Cloudy
1:03 AM 46.4 °F 43.5 °F 42.8 °F 87% 29.59 in 10.0 mi SE 5.8 mph - N/A   Light Drizzle
1:13 AM 46.4 °F 43.5 °F 42.8 °F 87% 29.58 in 10.0 mi SE 5.8 mph - N/A   Mostly Cloudy
1:23 AM 46.4 °F 42.9 °F 42.8 °F 87% 29.58 in 10.0 mi SE 6.9 mph - N/A   Light Drizzle
1:55 AM 45.7 °F 40.2 °F 43.0 °F 90% 29.57 in 10.0 mi ESE 11.5 mph - 0.00 in Rain Light Rain
2:55 AM 45.9 °F 42.3 °F 43.2 °F 90% 29.55 in 10.0 mi SE 6.9 mph - 0.01 in   Light Drizzle
3:55 AM 46.2 °F 41.7 °F 42.8 °F 88% 29.52 in 10.0 mi SE 9.2 mph - 0.02 in Rain Light Rain
4:55 AM 46.4 °F 41.9 °F 42.8 °F 87% 29.52 in 10.0 mi SSE 9.2 mph - 0.01 in Rain Light Rain
5:55 AM 46.0 °F 41.0 °F 43.7 °F 92% 29.52 in 10.0 mi SSW 10.4 mph - 0.02 in Rain Light Rain
6:21 AM 46.4 °F 40.7 °F 44.6 °F 93% 29.52 in 10.0 mi SSW 12.7 mph - N/A Rain Light Rain
6:23 AM 46.4 °F 40.4 °F 44.6 °F 93% 29.52 in 10.0 mi SW 13.8 mph - N/A Rain Light Rain
6:27 AM 46.4 °F 40.7 °F 44.6 °F 93% 29.52 in 10.0 mi SW 12.7 mph - N/A Rain Light Rain
6:29 AM 46.4 °F 40.1 °F 44.6 °F 93% 29.52 in 10.0 mi SW 15.0 mph - N/A Rain Light Rain
6:34 AM 44.6 °F 38.8 °F 42.8 °F 93% 29.52 in 10.0 mi SW 11.5 mph - N/A Rain Light Rain
6:46 AM 44.6 °F 39.2 °F 42.8 °F 93% 29.52 in 10.0 mi SW 10.4 mph - N/A Rain Light Rain
6:55 AM 44.8 °F 40.4 °F 43.0 °F 93% 29.52 in 10.0 mi SSW 8.1 mph - 0.02 in Rain Light Rain
7:55 AM 44.8 °F 39.4 °F 42.8 °F 93% 29.52 in 10.0 mi South 10.4 mph - 0.00 in   Light Drizzle
8:55 AM 45.7 °F 39.5 °F 43.7 °F 93% 29.52 in 10.0 mi SSW 13.8 mph - 0.01 in Rain Light Rain
9:55 AM 46.8 °F - 44.2 °F 91% 29.52 in 10.0 mi SSW 11.5 mph - 0.01 in   Overcast
10:07 AM 46.4 °F 40.4 °F 44.6 °F 93% 29.52 in 10.0 mi SSW 13.8 mph - N/A   Overcast
10:23 AM 46.4 °F 40.4 °F 44.6 °F 93% 29.53 in 10.0 mi SSW 13.8 mph - N/A   Overcast
10:30 AM 48.2 °F - 44.6 °F 87% 29.51 in 10.0 mi SSW 13.8 mph - N/A   Overcast
10:55 AM 47.5 °F - 44.8 °F 90% 29.53 in 10.0 mi SSW 11.5 mph - N/A   Overcast
11:55 AM 48.7 °F - 45.1 °F 87% 29.53 in 10.0 mi SSW 12.7 mph - N/A   Overcast
12:10 PM 48.2 °F - 44.6 °F 87% 29.54 in 8.0 mi SSW 13.8 mph - N/A   Light Drizzle
12:55 PM 47.8 °F - 45.9 °F 93% 29.54 in 10.0 mi SW 13.8 mph - 0.01 in Rain Light Rain
1:55 PM 48.0 °F - 45.5 °F 91% 29.53 in 10.0 mi SW 15.0 mph - 0.03 in Rain Light Rain
2:27 PM 48.2 °F - 46.4 °F 93% 29.54 in 10.0 mi SW 15.0 mph - N/A Rain Light Rain
2:36 PM 46.4 °F 40.1 °F 44.6 °F 93% 29.54 in 10.0 mi SW 15.0 mph - N/A Rain Light Rain
2:55 PM 47.8 °F - 45.5 °F 92% 29.54 in 10.0 mi SW 13.8 mph - 0.03 in Rain Light Rain
3:08 PM 48.2 °F - 46.4 °F 93% 29.54 in 10.0 mi SW 15.0 mph - N/A   Overcast
3:09 PM 48.2 °F - 46.4 °F 93% 29.54 in 10.0 mi SW 16.1 mph - N/A   Overcast
3:16 PM 48.2 °F - 46.4 °F 93% 29.54 in 10.0 mi SW 11.5 mph - N/A   Overcast
3:18 PM 48.2 °F - 46.4 °F 93% 29.54 in 10.0 mi SSW 12.7 mph - N/A   Overcast
3:21 PM 48.2 °F - 46.4 °F 93% 29.54 in 10.0 mi SW 12.7 mph - N/A   Overcast
3:47 PM 48.2 °F - 46.4 °F 93% 29.55 in 10.0 mi SW 8.1 mph - N/A   Light Drizzle
3:55 PM 48.2 °F - 45.9 °F 92% 29.55 in 10.0 mi SW 15.0 mph - 0.01 in   Overcast
4:10 PM 48.2 °F - 46.4 °F 93% 29.55 in 10.0 mi SW 18.4 mph - N/A   Overcast
4:15 PM 48.2 °F - 46.4 °F 93% 29.55 in 10.0 mi WSW 17.3 mph - N/A Rain Light Rain
4:55 PM 48.2 °F - 45.7 °F 91% 29.56 in 10.0 mi WSW 11.5 mph - 0.00 in Rain Light Rain
5:07 PM 48.2 °F - 46.4 °F 93% 29.57 in 10.0 mi SW 16.1 mph - N/A Rain Light Rain
5:08 PM 48.2 °F - 46.4 °F 93% 29.57 in 10.0 mi SW 16.1 mph - N/A   Overcast
5:55 PM 48.0 °F - 45.7 °F 92% 29.58 in 10.0 mi SW 15.0 mph - 0.00 in   Overcast
6:00 PM 48.2 °F - 46.4 °F 93% 29.58 in 10.0 mi WSW 15.0 mph - N/A   Overcast
6:11 PM 48.2 °F - 46.4 °F 93% 29.58 in 10.0 mi WSW 13.8 mph - N/A   Overcast
6:15 PM 48.2 °F - 46.4 °F 93% 29.59 in 10.0 mi WSW 12.7 mph - N/A   Overcast
6:45 PM 48.2 °F - 44.6 °F 87% 29.59 in 10.0 mi WSW 13.8 mph - N/A   Mostly Cloudy
6:48 PM 48.2 °F - 44.6 °F 87% 29.60 in 10.0 mi WSW 13.8 mph - N/A   Light Drizzle
6:55 PM 47.7 °F - 44.6 °F 89% 29.60 in 10.0 mi WSW 13.8 mph - 0.00 in   Light Drizzle
6:57 PM 48.2 °F - 44.6 °F 87% 29.60 in 10.0 mi WSW 11.5 mph - N/A   Mostly Cloudy
7:01 PM 48.2 °F - 44.6 °F 87% 29.60 in 10.0 mi WSW 11.5 mph - N/A   Mostly Cloudy
7:06 PM 48.2 °F - 44.6 °F 87% 29.60 in 10.0 mi West 11.5 mph - N/A Rain Light Rain
7:26 PM 48.2 °F - 44.6 °F 87% 29.61 in 10.0 mi WSW 9.2 mph - N/A   Overcast
7:31 PM 48.2 °F - 44.6 °F 87% 29.61 in 10.0 mi WSW 11.5 mph - N/A Rain Light Rain
7:33 PM 48.2 °F - 44.6 °F 87% 29.61 in 10.0 mi WSW 10.4 mph - N/A Rain Light Rain
7:37 PM 46.4 °F 40.4 °F 44.6 °F 93% 29.61 in 10.0 mi WSW 13.8 mph - N/A Rain Light Rain
7:51 PM 46.4 °F 41.5 °F 44.6 °F 93% 29.61 in 10.0 mi WSW 10.4 mph - N/A Rain Light Rain
7:55 PM 46.9 °F - 45.3 °F 94% 29.61 in 10.0 mi WSW 9.2 mph - 0.00 in Rain Light Rain
8:02 PM 46.4 °F 40.7 °F 44.6 °F 93% 29.61 in 10.0 mi WSW 12.7 mph - N/A   Light Drizzle
8:04 PM 46.4 °F 41.1 °F 44.6 °F 93% 29.61 in 10.0 mi WSW 11.5 mph - N/A   Overcast
8:19 PM 46.4 °F 41.5 °F 44.6 °F 93% 29.62 in 10.0 mi SW 10.4 mph - N/A   Overcast
8:22 PM 46.4 °F 40.7 °F 44.6 °F 93% 29.62 in 10.0 mi WSW 12.7 mph - N/A Rain Light Rain
8:29 PM 46.4 °F 41.1 °F 44.6 °F 93% 29.62 in 10.0 mi WSW 11.5 mph - N/A Rain Light Rain
8:36 PM 46.4 °F 41.5 °F 44.6 °F 93% 29.62 in 10.0 mi WSW 10.4 mph - N/A Rain Light Rain
8:46 PM 46.4 °F 40.7 °F 44.6 °F 93% 29.62 in 10.0 mi WSW 12.7 mph - N/A   Overcast
8:55 PM 46.0 °F 40.2 °F 44.4 °F 94% 29.62 in 10.0 mi WSW 12.7 mph - 0.02 in   Overcast
9:55 PM 44.6 °F 39.2 °F 42.8 °F 93% 29.64 in 10.0 mi WSW 10.4 mph - N/A   Partly Cloudy
10:55 PM 46.4 °F 40.7 °F 44.6 °F 93% 29.65 in 10.0 mi West 12.7 mph - N/A   Overcast
11:55 PM 45.9 °F 40.4 °F 44.2 °F 94% 29.66 in 10.0 mi WSW 11.5 mph - N/A   Overcast